Location: Krakow
(50.0830°N, 19.9170°E)
Time: 06:17:35
(UTC+01:00)

Vanguard 1 Rocket - Visible Passes

Search period start: 06 February 2023 00:00
Search period end: 16 February 2023 00:00
Orbit: 651 x 4224 km, 34.3° (Epoch: 05 February)

Date Brightness Start Highest point End Pass type
(mag) Time Alt. Az. Time Alt. Az. Time Alt. Az.
06 Feb 12.0 17:47:18 10° W 18:01:39 24° SW 18:19:20 10° S visible
07 Feb 12.3 19:09:09 10° WSW 19:16:00 12° SW 19:23:20 10° SSW visible
08 Feb 12.1 17:51:08 10° WSW 18:03:15 19° SW 18:17:55 10° S visible
10 Feb 12.3 17:56:14 10° WSW 18:04:54 14° SW 18:14:57 10° SSW visible
